SL-14 DEB, 45334

Orbit data source: Space-Track

SL-14 DEB, 45334 is space debris in LEO originally from a launch on Thu, 15 Aug 1991 UTC launched from the Plesetsk Missile And Space Complex (PKMTR). Debris objects in space refer to the collection of defunct objects orbiting the Earth. Examples of debris include non-operational satellites, rocket bodies, and fragments generated from explosions, collisions, or faulty payload assembly.

Loading next visibility...
Identifier
45334, 1991-056BY
Orbit
LEO
Country
Flag of CISCIS
Related business
Manufacturer
Unknown
Mission
Spacecraft
Bus & Motor
Unknown
Mass
Unknown
Launch date (UTC)
1991-08-15 (35 years ago)
Launch vehicle
Unknown
Launch site
Plesetsk Missile And Space Complex (PKMTR)
Object type
Payload
Rocket body
Debris
Shape & HBR
Unknown shape, 0.1 m
Radar Cross Section
Small (<0.1 m²)

Expand to show TLE details & history
Last TLE update: 3 days ago

TLE from 3 days ago
0 SL-14 DEB
1 45334U 91056BY  26252.44142751  .00000178  00000-0  36964-3 0  9992
2 45334  82.5536  52.5734 0046933 127.7309 232.8087 13.26745985316606
Epoch: 2026-09-09T10:35Z
TLE epoch observation values (Epoch: 2026-09-09T10:35:39.336Z)
Latitude
-0.00001°
Longitude
-94.83394°
Altitude
1,183.375 km
Speed
7.252 km/s
True Right ascension
03h 30m 17s
True Declination
0° 00' 00"
Sunlit
Object was in daylight at epoch
Visualization orbit readout
Latitude
Unknown
Longitude
Unknown
Altitude
Unknown
Speed
Unknown
Apparent Right ascension
Unknown
Apparent Declination
Unknown
Sunlit
N/A
Visualization observer readout
Local Sidereal Time
15:43:27
Azimuth
Unknown
Elevation
Unknown
Doppler factor
Unknown
Orbital elements
Apogee altitude
1,191.654 km
Perigee altitude
1,120.932 km
Semi-major axis
7,534.43 km
Eccentricity
0.00469
Inclination
82.5536°
RAAN
52.5734°
Arg. of periapsis
127.7309°
True anomaly
232.38178°
Mean anomaly
232.8087°
Eccentric anomaly
232.59509°
Mean motion
3.3187 °/min
Orbital period
108.48 mins
BSTAR
0.00036964
Loading maneuver chart data...
Computing Atmospheric mass density...
Loading historical data...
Loading historical data...
Loading historical data...
Loading historical data...
Loading historical data...
Loading historical data...
Loading historical data...

Documentation

Showing up to 5 results
|